Temperature
15 16 16 15 15 15 15 15 15 15 15 15 15 15 15 15 15 15 15 15 14 14 14 14 14 14 14 15 15 15 15 15 15 15 15 15 15 14 14 14 14 14 14
15 15 15 15 15 15 15 15 15 15 15 14 14 14 14 14 14 14 14 14 14 14 14 14 14 14 14 14 14 15 15 14 14 14 14 14 14 14 14 14 14 14 14
15 15 15 15 15 15 14 14 14 14 14 14 14 14 14 14 14 14 14 14 14 14 14 14 14 14 14 14 14 14 14 14 14 14 14 14 14 14 14 14 14 14 14
15 15 15 15 15 15 14 14 14 14 14 14 14 14 14 14 14 14 14 14 14 14 13 13 13 14 14 14 14 14 14 14 14 13 13 13 14 14 14 14 14 14 14
14 14 14 14 14 14 14 14 14 14 14 14 14 14 14 14 14 14 13 13 13 13 13 13 13 13 13 14 13 13 13 13 13 13 13 13 13 14 14 14 14 14 14
14 14 14 14 14 14 14 14 14 14 14 14 14 14 14 14 14 13 13 13 13 13 13 13 13 13 13 13 13 13 13 13 13 13 13 13 13 13 14 14 14 14 13
14 14 14 14 14 14 14 14 14 14 13 13 14 13 13 13 13 13 13 13 13 13 13 13 13 13 13 13 13 13 13 13 13 13 13 13 13 13 13 13 13 13 13
14 14 14 14 14 14 14 13 13 13 13 13 13 13 13 13 13 13 13 13 13 13 13 13 13 13 13 13 13 13 13 13 13 13 13 13 13 13 13 13 13 13 13
13 13 13 13 13 13 13 13 13 13 13 13 13 13 13 13 13 13 13 13 12 12 13 13 12 13 13 13 13 13 13 13 12 12 12 12 12 13 13 13 13 13 13
13 13 13 13 13 13 13 13 13 13 13 13 13 12 12 12 12 12 12 12 12 12 12 12 12 12 12 12 13 13 12 12 12 12 12 12 12 12 12 12 12 12 12
12 12 12 12 13 13 13 12 12 12 12 12 12 12 12 12 12 12 12 12 12 12 12 12 12 12 12 12 12 12 12 12 12 12 12 12 12 12 12 12 12 12 12
12 12 12 12 12 12 12 12 12 12 12 12 12 12 12 12 12 12 12 12 12 12 12 12 12 12 12 12 12 12 12 12 11 12 12 12 12 12 12 12 12 12 12
11 11 11 12 12 12 12 12 12 12 12 11 11 11 12 11 11 11 11 12 12 12 12 12 11 11 11 11 11 11 11 11 11 11 11 11 11 11 12 11 11 11 11
11 11 11 11 11 11 11 11 11 11 11 11 11 11 11 11 11 11 11 11 11 11 11 11 11 11 11 11 11 11 11 11 11 11 11 11 11 11 11 11 11 11 11
10 10 10 11 11 11 11 11 11 11 11 11 11 11 11 11 11 11 11 11 11 11 11 11 10 10 10 10 10 10 10 10 11 11 11 11 11 11 11 11 11 10 10
10 10 10 10 10 10 11 11 10 10 10 10 10 10 10 10 10 10 10 10 10 10 10 10 10 10 10 10 10 10 10 10 10 10 10 10 11 11 11 11 10 10 10
9 9 9 10 10 10 10 10 10 10 10 10 10 10 10 10 10 10 9 9 9 10 9 9 9 9 9 9 9 9 10 10 10 10 10 10 10 10 10 10 10 10 9
9 9 9 9 9 9 9 10 9 9 9 9 9 9 9 9 9 9 9 9 9 9 9 9 9 9 9 9 9 9 9 9 9 9 10 10 9 10 10 10 10 9 9
8 8 8 9 9 9 9 9 9 8 8 8 9 8 9 9 9 9 8 8 8 8 8 8 8 8 8 8 8 8 9 9 9 9 9 9 9 9 9 9 9 9 9
8 8 8 8 8 8 8 8 8 8 8 8 8 8 8 8 8 8 8 8 8 8 8 7 7 7 7 7 7 7 8 8 8 8 8 8 8 8 8 8 8 8 8
8 8 7 8 8 8 8 8 7 7 7 7 7 8 8 8 8 7 7 7 7 7 7 7 7 7 7 6 6 7 7 7 8 7 8 8 8 8 8 8 8 8 7
7 7 7 7 7 7 7 7 7 7 7 7 7 7 7 7 7 7 7 7 6 6 6 6 6 6 6 6 6 5 6 6 7 7 7 7 7 7 7 7 7 7 7
7 7 7 7 7 7 7 7 7 6 6 6 6 6 6 6 6 6 6 6 6 6 6 6 5 5 5 5 5 5 5 5 6 6 6 6 6 6 6 6 6 6 6
7 7 6 6 6 6 6 6 6 6 6 6 6 6 6 6 6 6 6 6 5 5 5 5 5 5 5 5 5 5 5 5 5 5 5 5 5 5 6 6 6 6 5
6 6 6 6 6 6 6 6 6 6 5 5 5 5 5 5 5 5 5 5 5 5 5 4 4 4 4 4 4 4 4 4 4 4 4 4 5 5 5 5 5 5 5
6 6 6 5 5 5 5 5 5 5 5 5 5 5 4 4 4 4 4 4 4 4 4 4 4 4 4 4 4 4 4 4 4 4 4 4 4 4 4 4 4 4 4
Wind_Speed
8 10 11 10 9 10 10 10 10 11 11 11 11 11 10 10 10 10 10 10 10 10 10 11 10 11 11 12 12 12 12 12 12 12 12 12 12 11 11 11 11 10 11
9 12 12 10 10 10 10 11 10 11 10 10 10 10 10 10 10 10 10 10 10 10 10 10 10 10 10 11 11 11 11 10 10 9 9 10 10 10 10 10 10 9 10
10 13 12 10 10 10 10 10 10 11 11 10 10 10 10 10 10 10 10 10 9 9 9 9 10 10 10 10 10 9 9 8 7 7 6 7 9 10 10 10 10 9 9
10 12 11 11 10 10 10 10 10 10 10 11 11 10 10 10 10 10 10 10 9 8 8 9 9 9 9 9 8 8 7 6 5 4 5 7 8 9 9 9 9 9 8
9 11 12 11 10 9 10 9 10 9 10 10 11 10 10 10 10 9 9 9 9 9 8 9 9 8 8 8 7 6 5 5 4 4 4 8 8 8 8 8 8 7 7
9 11 12 12 10 9 9 10 9 9 9 10 10 10 10 9 9 8 8 9 9 9 9 8 8 7 7 6 5 5 4 4 4 4 5 7 7 7 7 7 7 6 6
7 10 11 12 10 9 9 9 9 8 9 9 9 9 9 8 8 8 7 7 8 8 8 7 7 6 5 5 4 4 4 5 3 4 5 6 6 6 5 5 5 5 5
7 8 10 11 10 9 8 8 9 9 8 8 8 8 8 7 7 7 7 7 7 7 6 6 6 6 5 4 3 3 3 4 4 3 4 4 5 4 3 3 4 4 4
7 7 7 8 8 8 8 8 8 8 8 8 8 7 7 6 6 6 6 6 6 5 5 5 4 4 3 3 2 2 3 3 4 2 2 4 4 3 2 2 2 3 3
5 5 6 6 7 7 7 7 7 8 8 8 7 7 7 6 5 5 5 5 5 4 4 3 3 2 2 2 1 2 3 3 3 2 3 3 2 1 1 2 2 3 3
4 4 4 5 5 6 6 7 7 7 7 7 7 7 6 4 4 4 5 5 4 3 2 2 2 1 1 0 1 3 3 2 2 2 2 2 1 1 2 3 3 3 3
3 3 3 3 3 4 4 4 4 5 5 5 6 6 4 3 4 4 4 4 3 2 1 1 0 0 1 1 2 3 3 2 1 1 1 1 1 3 4 3 3 4 3
2 3 3 2 3 3 3 3 2 3 3 3 4 5 3 3 3 3 3 3 3 2 1 0 1 1 1 1 1 2 3 2 1 1 1 1 2 3 4 4 4 4 4
2 2 3 2 2 2 2 2 2 2 2 2 3 4 3 2 2 2 2 1 1 1 0 0 1 2 2 2 2 2 3 2 1 0 1 2 3 4 5 5 5 5 5
2 2 3 2 2 2 2 1 2 2 2 2 2 3 3 2 1 1 1 1 1 1 1 1 1 2 2 2 2 2 2 2 2 1 1 3 3 4 5 6 5 5 5
3 2 2 2 2 2 2 1 1 2 2 3 3 2 2 2 2 1 1 1 1 1 1 1 2 2 2 2 2 2 2 2 2 2 3 3 4 4 5 5 5 6 6
3 2 2 2 2 3 2 2 2 2 3 2 2 2 2 1 1 1 1 0 1 1 1 1 2 2 1 2 2 2 2 2 2 3 3 3 3 4 5 6 6 6 6
3 2 3 1 2 3 2 2 2 2 2 2 2 2 2 2 1 1 1 0 0 0 1 1 1 1 1 1 2 2 2 2 3 3 3 3 3 3 4 5 5 6 6
2 2 2 2 3 3 2 2 2 2 2 2 2 2 2 2 1 1 0 0 1 1 1 1 1 0 1 2 2 2 2 3 3 3 3 3 3 3 3 3 5 6 6
2 2 2 2 2 2 2 2 2 1 1 2 2 2 2 1 1 1 1 0 0 1 1 1 1 1 1 2 3 3 3 4 4 3 3 2 2 2 3 3 3 5 7
3 3 3 2 2 2 2 2 2 1 1 0 1 1 1 1 1 1 0 0 0 1 1 1 1 1 1 1 1 3 4 4 4 3 1 1 2 2 2 3 2 3 5
4 3 3 2 2 2 2 2 2 2 1 1 1 1 0 1 1 0 0 1 1 1 1 1 1 1 1 1 1 1 2 3 2 2 1 2 2 1 2 3 3 4 3
4 3 2 2 2 1 1 1 1 1 1 1 1 1 1 0 1 1 0 1 1 1 2 2 2 2 1 2 1 1 1 2 2 2 3 2 2 2 2 3 4 4 4
3 3 2 2 2 2 2 2 3 2 2 2 2 2 1 1 1 1 1 1 2 2 2 2 2 1 2 2 2 2 2 1 1 2 2 2 2 2 3 3 3 4 4
4 3 3 2 2 2 2 3 3 2 2 1 1 2 2 2 2 2 2 2 2 2 3 3 2 2 2 2 2 2 2 2 2 3 4 3 3 3 2 3 3 3 4
3 3 3 3 2 2 2 2 2 3 2 2 1 2 2 2 2 3 2 2 3 2 3 3 3 3 3 3 2 2 2 2 2 2 4 4 4 3 3 3 3 3 4
Wind_Direction
114 121 127 119 113 110 108 107 104 102 97 93 90 87 87 85 81 81 86 91 90 90 89 87 86 84 82 78 77 75 71 70 70 70 71 72 72 70 66 64 62 65 70
118 123 125 119 116 112 110 108 106 104 101 97 93 89 87 85 80 79 83 89 91 91 90 90 87 84 82 79 77 77 74 73 71 69 70 72 75 71 66 63 62 66 66
114 119 123 118 116 116 114 110 105 102 101 100 95 91 89 84 80 78 81 83 88 90 90 90 87 84 83 81 78 78 75 71 70 61 65 79 78 73 67 62 63 64 62
114 120 124 120 117 117 116 113 109 105 102 100 97 93 89 86 80 77 79 81 83 87 91 93 89 85 84 83 80 77 71 68 60 43 65 83 79 76 67 63 63 61 57
107 113 121 125 122 117 117 115 112 109 106 101 98 93 89 86 82 79 79 79 80 81 86 89 86 84 84 82 79 72 62 48 28 38 58 79 80 78 68 61 60 59 53
106 109 122 128 126 122 121 118 116 112 107 102 98 93 89 86 84 81 79 78 77 76 78 84 85 84 80 79 75 64 48 25 22 18 60 74 80 80 69 57 54 53 48
106 109 124 131 130 128 127 124 120 116 112 107 103 99 93 90 88 86 83 83 78 76 78 83 84 81 79 74 65 47 31 10 29 24 49 68 82 83 68 54 49 44 38
102 106 118 133 133 132 133 131 128 124 120 114 107 106 103 97 93 92 89 86 81 78 74 77 82 78 74 71 59 37 15 4 14 26 51 71 91 89 69 51 40 30 21
96 106 109 120 124 127 133 135 132 130 127 122 116 112 111 108 105 101 96 88 83 79 75 73 76 78 73 66 47 15 354 347 347 358 45 72 90 91 67 31 13 360 349
93 110 119 115 116 120 125 129 132 135 134 134 129 121 119 118 115 113 104 94 86 84 80 75 66 69 76 65 19 342 316 323 320 359 63 80 90 65 357 341 335 322 323
96 99 103 110 109 119 131 135 134 137 140 142 139 137 136 136 123 114 113 108 101 91 83 83 57 66 79 190 280 290 298 296 330 43 75 94 76 314 306 310 312 306 313
119 107 96 111 109 111 122 127 140 141 144 151 148 144 140 122 118 124 133 136 137 133 127 128 311 218 126 219 267 270 281 288 296 66 104 140 279 286 293 296 300 298 302
128 107 94 101 104 102 101 121 118 117 125 141 139 134 127 130 129 129 130 144 153 158 140 178 248 266 255 264 273 271 279 299 330 45 155 201 273 281 285 286 291 290 292
117 106 98 74 93 96 93 104 117 103 102 101 108 126 117 90 88 83 82 106 119 122 102 238 285 304 305 290 269 278 296 306 313 312 208 224 255 270 276 281 283 280 280
130 95 98 78 94 93 90 95 107 107 113 101 98 125 125 99 120 84 54 73 52 37 12 335 329 335 337 326 302 289 293 305 313 279 251 248 256 262 271 276 283 282 279
139 123 100 96 117 105 102 93 88 81 84 97 93 101 118 111 97 100 67 72 41 24 351 341 334 330 321 309 298 300 290 285 288 287 257 249 243 251 261 268 279 283 285
134 128 117 112 122 115 111 99 72 60 69 77 87 93 91 91 98 85 123 124 55 15 336 335 332 342 321 306 293 299 304 293 273 269 257 246 233 241 256 264 270 279 284
118 131 128 126 119 120 119 109 94 81 83 76 82 92 83 66 72 67 118 185 51 10 348 301 267 304 310 300 298 299 302 301 281 266 255 243 231 228 246 256 265 275 280
122 132 129 130 125 127 118 110 104 84 86 90 87 84 89 75 62 63 99 28 27 8 308 267 288 294 299 301 290 287 287 280 276 273 254 249 237 219 216 243 257 272 279
132 139 125 109 111 117 119 114 103 90 86 79 79 75 93 85 40 38 68 90 70 177 232 252 281 304 276 289 301 300 287 273 264 251 256 259 250 227 227 235 240 262 272
124 124 135 125 131 130 143 151 147 172 189 151 95 82 83 86 63 2 102 123 105 196 237 251 266 278 302 318 324 310 289 270 253 238 245 256 262 252 247 249 241 251 262
137 135 135 136 140 134 150 169 172 171 186 189 138 86 177 149 125 54 13 206 195 204 232 251 239 229 278 295 316 320 301 301 290 269 244 236 255 274 276 272 263 258 261
144 150 149 139 128 130 134 138 137 139 166 175 192 206 221 209 150 144 274 274 236 206 218 236 230 214 243 269 254 218 232 257 314 279 255 246 245 259 264 263 258 260 268
150 141 130 132 137 153 170 178 179 195 202 203 195 201 200 204 214 197 204 244 234 227 227 237 239 242 218 241 272 267 257 252 257 296 293 275 265 265 264 272 271 261 259
146 147 146 154 156 166 185 192 192 199 206 193 180 190 204 210 223 219 206 221 225 226 223 228 242 241 228 229 237 268 282 286 252 248 278 288 295 279 275 270 263 261 260
140 148 156 159 169 179 187 187 195 191 194 190 197 207 217 213 217 218 213 213 224 228 224 224 230 230 230 231 235 232 240 248 255 252 266 283 287 284 281 269 257 255 260
Height
1503 1503 1505 1506 1508 1509 1510 1512 1513 1514 1516 1517 1518 1519 1520 1521 1522 1523 1523 1524 1525 1525 1526 1527 1528 1528 1529 1529 1530 1530 1531 1531 1532 1532 1532 1533 1533 1534 1534 1535 1535 1535 1535
1502 1503 1504 1506 1508 1509 1510 1512 1513 1514 1516 1517 1518 1519 1520 1521 1522 1523 1524 1524 1525 1526 1526 1527 1528 1528 1529 1529 1530 1530 1531 1532 1532 1533 1533 1533 1534 1534 1534 1535 1535 1536 1536
1502 1502 1504 1506 1507 1509 1510 1512 1513 1515 1516 1517 1518 1519 1521 1522 1522 1523 1524 1524 1525 1526 1527 1527 1528 1528 1529 1530 1530 1531 1531 1532 1533 1533 1533 1534 1534 1534 1535 1535 1535 1536 1536
1502 1502 1504 1506 1507 1509 1510 1512 1513 1515 1516 1517 1518 1519 1521 1522 1522 1523 1524 1525 1525 1526 1527 1527 1528 1529 1529 1530 1530 1531 1532 1532 1533 1534 1534 1534 1534 1535 1535 1535 1535 1535 1536
1502 1502 1504 1505 1507 1508 1510 1511 1513 1514 1516 1517 1518 1519 1520 1521 1522 1523 1524 1525 1525 1526 1527 1527 1528 1528 1529 1530 1530 1531 1531 1532 1533 1534 1534 1534 1534 1534 1535 1535 1535 1535 1536
1502 1502 1504 1505 1507 1508 1510 1511 1513 1514 1515 1516 1518 1519 1520 1521 1522 1523 1524 1525 1525 1526 1527 1527 1528 1528 1529 1529 1530 1531 1531 1532 1533 1533 1533 1534 1534 1534 1534 1534 1534 1535 1535
1502 1502 1504 1505 1506 1508 1509 1511 1512 1513 1515 1516 1517 1519 1520 1521 1522 1522 1523 1524 1525 1526 1526 1527 1527 1528 1528 1529 1530 1530 1531 1531 1532 1532 1533 1533 1533 1533 1533 1534 1534 1534 1534
1501 1502 1503 1504 1505 1507 1508 1510 1511 1513 1514 1515 1517 1518 1519 1520 1521 1522 1523 1523 1524 1525 1526 1526 1527 1527 1528 1528 1529 1529 1530 1531 1531 1531 1532 1532 1532 1532 1532 1533 1533 1533 1533
1500 1501 1502 1503 1504 1506 1507 1509 1510 1512 1513 1515 1516 1517 1518 1519 1520 1521 1522 1523 1523 1524 1525 1525 1526 1526 1527 1527 1528 1528 1529 1530 1530 1530 1531 1531 1531 1531 1531 1531 1531 1532 1532
1499 1500 1500 1502 1503 1504 1506 1508 1509 1511 1512 1514 1515 1516 1517 1518 1519 1520 1520 1521 1522 1523 1524 1524 1525 1525 1526 1526 1527 1527 1528 1528 1529 1529 1529 1529 1530 1530 1530 1530 1530 1530 1530
1498 1499 1500 1501 1502 1503 1505 1506 1508 1510 1511 1512 1513 1514 1515 1516 1517 1518 1519 1520 1521 1521 1522 1523 1523 1524 1524 1525 1525 1526 1526 1527 1527 1527 1528 1528 1528 1528 1528 1528 1528 1528 1528
1496 1497 1498 1499 1500 1502 1503 1505 1506 1508 1509 1510 1511 1512 1514 1515 1516 1517 1518 1518 1519 1520 1520 1521 1521 1522 1522 1523 1524 1524 1524 1525 1525 1525 1526 1526 1526 1526 1526 1526 1526 1526 1526
1494 1496 1496 1497 1498 1500 1501 1502 1504 1506 1507 1509 1510 1511 1512 1513 1514 1515 1515 1516 1517 1518 1519 1519 1519 1520 1520 1521 1521 1522 1522 1523 1523 1523 1523 1524 1524 1524 1524 1524 1524 1524 1523
1492 1494 1494 1495 1496 1497 1499 1500 1502 1503 1505 1507 1508 1509 1510 1511 1512 1512 1513 1514 1515 1516 1516 1517 1517 1518 1518 1519 1519 1520 1520 1520 1521 1521 1521 1521 1521 1521 1521 1521 1521 1521 1521
1490 1491 1492 1492 1494 1495 1496 1498 1499 1501 1503 1504 1505 1506 1507 1508 1509 1510 1511 1512 1513 1513 1514 1514 1515 1515 1516 1516 1517 1517 1518 1518 1518 1518 1518 1518 1518 1518 1518 1518 1518 1518 1518
1488 1489 1490 1490 1491 1492 1494 1495 1497 1499 1501 1502 1503 1504 1505 1506 1507 1508 1509 1509 1510 1511 1512 1512 1513 1513 1513 1514 1514 1514 1515 1515 1515 1515 1515 1515 1515 1515 1515 1515 1515 1515 1515
1485 1486 1487 1488 1489 1490 1492 1493 1495 1497 1498 1499 1501 1502 1502 1503 1504 1505 1506 1507 1508 1508 1509 1510 1510 1510 1510 1511 1511 1511 1511 1511 1511 1512 1512 1512 1512 1512 1512 1512 1512 1511 1511
1483 1484 1484 1485 1487 1488 1489 1491 1492 1494 1495 1496 1498 1499 1500 1500 1501 1502 1503 1504 1505 1505 1506 1507 1507 1507 1507 1507 1507 1507 1508 1508 1508 1508 1508 1508 1508 1508 1508 1508 1508 1508 1508
1480 1481 1482 1483 1484 1486 1487 1488 1490 1491 1493 1494 1495 1496 1497 1498 1498 1499 1500 1501 1502 1502 1502 1503 1504 1504 1504 1503 1503 1504 1504 1504 1504 1504 1504 1505 1505 1505 1505 1504 1504 1504 1504
1478 1479 1479 1480 1482 1483 1485 1486 1487 1489 1490 1491 1492 1493 1494 1495 1495 1496 1497 1497 1498 1498 1499 1500 1500 1500 1500 1500 1500 1500 1500 1500 1500 1500 1501 1501 1501 1501 1501 1501 1501 1501 1500
1475 1476 1477 1478 1479 1481 1482 1483 1484 1486 1487 1488 1489 1490 1491 1491 1492 1493 1493 1494 1494 1495 1495 1496 1496 1497 1497 1497 1497 1496 1496 1496 1496 1497 1497 1497 1497 1497 1497 1497 1497 1497 1496
1473 1474 1475 1476 1477 1478 1479 1480 1482 1483 1484 1485 1486 1487 1488 1488 1489 1489 1490 1490 1490 1491 1492 1492 1493 1493 1494 1494 1495 1494 1493 1494 1493 1493 1493 1493 1493 1494 1493 1493 1493 1493 1492
1471 1472 1473 1473 1475 1476 1477 1479 1479 1481 1481 1482 1482 1483 1484 1485 1485 1486 1486 1487 1487 1487 1488 1488 1489 1489 1490 1491 1492 1493 1492 1490 1490 1489 1489 1490 1490 1490 1489 1489 1489 1489 1488
1468 1469 1470 1471 1472 1474 1475 1476 1477 1477 1477 1478 1479 1480 1481 1481 1482 1482 1483 1483 1483 1484 1484 1484 1485 1486 1486 1487 1488 1489 1490 1489 1489 1486 1486 1486 1486 1486 1486 1485 1485 1485 1484
1465 1466 1467 1469 1470 1471 1472 1473 1474 1474 1475 1475 1475 1476 1477 1477 1478 1478 1479 1479 1479 1480 1480 1481 1481 1482 1483 1483 1484 1485 1485 1485 1485 1484 1482 1482 1482 1482 1482 1481 1481 1481 1480
1463 1464 1465 1466 1468 1469 1469 1470 1470 1471 1471 1472 1472 1473 1473 1473 1474 1474 1475 1475 1475 1475 1476 1477 1477 1478 1479 1479 1480 1480 1481 1481 1481 1481 1480 1478 1477 1477 1477 1477 1477 1476 1476